Regional Weather Roundup
Issued by NWS New Orleans/Baton Rouge, LA

Home | Current Version | Previous Version | Text Only | Print | Product List | Glossary On
Versions: 1 2 3 4 5 6 7 8 9 10 11 12 13 14 15 16 17 18 19 20 21 22 23 24 25 26 27 28
000
ASUS44 KLIX 301613
RWRLIX
NEW ORLEANS REGIONAL WEATHER ROUNDUP
NATIONAL WEATHER SERVICE NEW ORLEANS LA
1100 AM CDT THU MAR 30 2017

NOTE: "FAIR" INDICATES FEW OR NO CLOUDS BELOW 12,000 FEET WITH NO
      SIGNIFICANT WEATHER AND/OR OBSTRUCTIONS TO VISIBILITY.
      SKY/WX - SKY CONDITION AND SIGNIFICANT WEATHER.
      TMP - AIR TEMPERATURE.     DP    - DEWPOINT TEMPERATURE.
      RH  - RELATIVE HUMIDITY.   PRES  - PRESSURE.
      HI  - HEAT INDEX.          WCI   - WIND CHILL INDEX.

*  THESE STATIONS ARE NOT NWS OR FAA STATIONS AND ARE NOT UNDER
   NWS QUALITY CONTROL.

LAZ038-040-048-061>063-065>067-069-301700-
SOUTHEAST LOUISIANA

CITY           SKY/WX    TMP DP  RH WIND       PRES   REMARKS
N.O. INTL ARPT TSTM      63  60  90 SE5       29.95R FOG
N.O. LAKEFRONT TSTM      66  61  84 W6        29.97R
N.O. DOWNTOWN* NOT AVBL
RESERVE*       NOT AVBL
SLIDELL        LGT RAIN  61  60  97 CALM      29.95F
BATON ROUGE    TSTM      64  60  87 S8        29.84R
BOOTHVILLE     CLOUDY    76  71  85 S10       29.92R
BELLE CHASSE   TSTM      64  61  90 NE6       29.96S FOG
BOGALUSA*      NOT AVBL
GALLIANO*      TSTM      62  58  86 NW10      29.95R
NEW ROADS*     CLOUDY    65  61  85 S6        29.86R
GONZALES*      LGT RAIN  64  61  91 SE6       29.88F
HAMMOND*       LGT RAIN  63  61  94 SE10      29.91F
HOUMA*         RAIN      61  61 100 N9        29.91F
PORT FOURCHON* FOG       63  59  88 NW20G33   29.95R VSB 3/4

$$

MSZ070-080>082-301700-
SOUTHERN MISSISSIPPI

CITY           SKY/WX    TMP DP  RH WIND       PRES   REMARKS
MCCOMB         CLOUDY    65  61  87 SW8       29.89S
GULFPORT       PTSUNNY   74  71  91 S12       29.91R
BILOXI         PTSUNNY   74  71  91 S12G21    29.90S
PASCAGOULA     CLOUDY    79  67  66 S15G23    29.93R
STENNIS ARPT*  TSTM      61  55  82 NW10      29.91S

$$

COASTAL OBSERVATIONS
LAKE AND NEARSHORE STATIONS

STATION/POSITION TIME  TEMP    WIND        PRES    WAVE
                       AIR SEA DIR/SP/G            HT/PER
                 (UTC) (F)     (DEG/KT/KT) (MB)    (FT/S)
PASCAGOULA       1548   78     150/ 10/ 16 1012.9
WAVELAND YACHT   1548      75  310/ 16/ 26 1014.0
GRAND ISLE       1548   68 76  340/ 17/ 20 1012.9
SOUTHWEST PASS   1548          140/  5/  9   N/A
NEW CANAL        1548   65 72  280/  1/  2 1014.3
SHELL BEACH      1548      76  300/ 23/ 27 1014.4

OFFSHORE STATIONS

STATION/POSITION TIME  TEMP    WIND        PRES    WAVE
                       AIR SEA DIR/SP/G            HT/PER
                 (UTC) (F)     (DEG/KT/KT) (MB)    (FT/S)
64 S DAUPHIN ISL 1550   74 74  150/ 14/ 17 1013.4    4/ 7

$$





USA.gov is the U.S. government's official web portal to all federal, state and local government web resources and services.